QPF
0.01 0.01 0.01 0.00 0.01 0.01 0.01 0.01 0.01 0.01 0.01 0.01 0.03 0.04 0.04 0.03 0.02 0.03 0.05 0.06 0.06 0.06 0.06 0.04 0.05 0.06 0.05 0.05 0.05 0.04 0.03 0.03 0.03 0.03 0.02 0.02 0.03 0.04 0.04 0.04 0.04 0.04 0.05
0.01 0.01 0.01 0.01 0.01 0.01 0.01 0.02 0.02 0.02 0.02 0.03 0.03 0.03 0.04 0.03 0.03 0.04 0.04 0.06 0.07 0.07 0.06 0.05 0.05 0.05 0.05 0.06 0.07 0.06 0.04 0.03 0.02 0.03 0.04 0.04 0.04 0.04 0.04 0.05 0.06 0.05 0.06
0.01 0.01 0.01 0.01 0.02 0.01 0.01 0.01 0.03 0.03 0.03 0.03 0.04 0.04 0.04 0.04 0.03 0.03 0.04 0.05 0.06 0.07 0.06 0.06 0.06 0.05 0.04 0.03 0.05 0.05 0.04 0.04 0.03 0.03 0.04 0.04 0.04 0.04 0.03 0.04 0.05 0.04 0.05
0.01 0.01 0.01 0.01 0.02 0.02 0.01 0.01 0.02 0.02 0.02 0.02 0.02 0.02 0.02 0.03 0.03 0.03 0.04 0.07 0.10 0.09 0.08 0.08 0.07 0.06 0.05 0.05 0.05 0.05 0.05 0.05 0.05 0.04 0.04 0.04 0.04 0.04 0.03 0.03 0.04 0.04 0.05
0.02 0.01 0.01 0.02 0.02 0.02 0.02 0.01 0.01 0.01 0.01 0.01 0.01 0.01 0.01 0.01 0.02 0.02 0.03 0.04 0.07 0.09 0.10 0.11 0.09 0.06 0.04 0.05 0.05 0.05 0.05 0.04 0.04 0.05 0.04 0.04 0.04 0.03 0.04 0.04 0.04 0.06 0.04
0.01 0.01 0.01 0.01 0.01 0.02 0.01 0.01 0.01 0.01 0.00 0.00 0.01 0.01 0.01 0.01 0.01 0.02 0.02 0.02 0.03 0.04 0.05 0.06 0.10 0.10 0.08 0.06 0.06 0.06 0.04 0.04 0.04 0.04 0.03 0.03 0.03 0.03 0.04 0.05 0.03 0.03 0.03
0.01 0.01 0.01 0.01 0.01 0.01 0.01 0.01 0.01 0.01 0.00 0.01 0.01 0.01 0.01 0.01 0.01 0.02 0.02 0.03 0.03 0.03 0.04 0.03 0.06 0.08 0.10 0.08 0.08 0.07 0.06 0.06 0.05 0.05 0.05 0.04 0.04 0.04 0.04 0.05 0.04 0.03 0.02
0.01 0.01 0.01 0.01 0.01 0.01 0.00 0.01 0.01 0.01 0.01 0.01 0.01 0.01 0.01 0.01 0.01 0.02 0.02 0.03 0.04 0.03 0.04 0.03 0.04 0.04 0.06 0.07 0.09 0.10 0.09 0.09 0.07 0.06 0.07 0.07 0.07 0.07 0.07 0.07 0.08 0.06 0.04
0.01 0.01 0.01 0.01 0.01 0.01 0.01 0.02 0.02 0.02 0.01 0.01 0.01 0.01 0.02 0.02 0.02 0.02 0.02 0.03 0.03 0.03 0.03 0.03 0.03 0.04 0.05 0.05 0.07 0.08 0.10 0.11 0.09 0.08 0.08 0.09 0.09 0.07 0.05 0.03 0.02 0.03 0.03
0.01 0.02 0.02 0.02 0.02 0.02 0.02 0.02 0.01 0.01 0.02 0.01 0.02 0.02 0.03 0.03 0.04 0.02 0.03 0.03 0.03 0.03 0.04 0.03 0.03 0.05 0.05 0.05 0.05 0.04 0.05 0.07 0.08 0.06 0.05 0.04 0.03 0.02 0.02 0.02 0.01 0.02 0.03
0.02 0.02 0.03 0.03 0.03 0.03 0.02 0.03 0.02 0.01 0.02 0.03 0.05 0.05 0.05 0.05 0.04 0.03 0.03 0.03 0.03 0.02 0.02 0.03 0.03 0.02 0.02 0.03 0.03 0.03 0.03 0.04 0.03 0.03 0.03 0.02 0.02 0.02 0.02 0.01 0.02 0.02 0.02
0.02 0.02 0.02 0.01 0.01 0.02 0.02 0.03 0.03 0.02 0.02 0.03 0.03 0.05 0.04 0.03 0.02 0.02 0.03 0.03 0.02 0.02 0.02 0.02 0.02 0.02 0.02 0.03 0.03 0.03 0.02 0.03 0.02 0.02 0.03 0.03 0.03 0.02 0.02 0.02 0.02 0.02 0.02
0.02 0.02 0.01 0.01 0.01 0.02 0.02 0.01 0.02 0.02 0.02 0.02 0.01 0.02 0.03 0.02 0.01 0.02 0.02 0.03 0.02 0.03 0.03 0.04 0.02 0.02 0.03 0.03 0.02 0.02 0.01 0.02 0.02 0.03 0.02 0.03 0.04 0.03 0.03 0.02 0.01 0.02 0.02
0.02 0.01 0.01 0.02 0.02 0.02 0.02 0.02 0.03 0.04 0.03 0.02 0.01 0.01 0.02 0.02 0.02 0.02 0.02 0.01 0.01 0.02 0.03 0.03 0.03 0.02 0.02 0.03 0.02 0.01 0.01 0.02 0.02 0.02 0.03 0.04 0.06 0.06 0.04 0.02 0.02 0.02 0.03
0.02 0.02 0.01 0.02 0.02 0.01 0.02 0.03 0.03 0.04 0.03 0.03 0.03 0.03 0.02 0.02 0.02 0.02 0.01 0.01 0.01 0.02 0.04 0.03 0.02 0.02 0.03 0.03 0.02 0.02 0.02 0.02 0.03 0.03 0.03 0.04 0.07 0.08 0.06 0.03 0.03 0.03 0.04
0.02 0.01 0.01 0.01 0.01 0.01 0.02 0.02 0.02 0.02 0.02 0.02 0.01 0.02 0.03 0.02 0.02 0.02 0.01 0.02 0.02 0.03 0.04 0.06 0.04 0.03 0.03 0.02 0.02 0.03 0.04 0.04 0.04 0.04 0.04 0.03 0.05 0.08 0.07 0.05 0.05 0.05 0.04
0.01 0.01 0.01 0.01 0.01 0.01 0.01 0.01 0.02 0.02 0.02 0.03 0.03 0.02 0.02 0.02 0.03 0.03 0.02 0.02 0.03 0.03 0.03 0.04 0.05 0.04 0.02 0.02 0.02 0.03 0.04 0.04 0.04 0.04 0.04 0.03 0.05 0.10 0.11 0.09 0.07 0.06 0.05
0.01 0.01 0.01 0.01 0.01 0.01 0.01 0.01 0.01 0.02 0.02 0.03 0.05 0.05 0.05 0.05 0.05 0.05 0.04 0.04 0.03 0.03 0.03 0.04 0.05 0.04 0.02 0.02 0.02 0.04 0.04 0.05 0.03 0.03 0.03 0.03 0.04 0.08 0.12 0.13 0.10 0.07 0.06
0.02 0.01 0.01 0.01 0.02 0.02 0.01 0.01 0.01 0.02 0.02 0.01 0.02 0.02 0.03 0.04 0.05 0.05 0.07 0.08 0.07 0.06 0.05 0.04 0.05 0.03 0.03 0.03 0.03 0.04 0.03 0.04 0.04 0.04 0.03 0.04 0.04 0.06 0.10 0.11 0.09 0.08 0.07
0.03 0.03 0.02 0.02 0.02 0.02 0.02 0.01 0.01 0.01 0.01 0.01 0.01 0.01 0.02 0.02 0.02 0.02 0.03 0.04 0.05 0.05 0.06 0.05 0.05 0.04 0.04 0.04 0.04 0.04 0.04 0.04 0.05 0.05 0.05 0.05 0.05 0.05 0.05 0.07 0.09 0.07 0.07
0.04 0.04 0.04 0.03 0.03 0.02 0.02 0.02 0.01 0.01 0.01 0.01 0.01 0.01 0.02 0.02 0.02 0.02 0.02 0.02 0.02 0.03 0.03 0.03 0.04 0.04 0.04 0.05 0.05 0.04 0.03 0.04 0.05 0.05 0.06 0.07 0.06 0.07 0.06 0.06 0.07 0.06 0.05
0.04 0.04 0.03 0.03 0.03 0.03 0.02 0.01 0.01 0.01 0.01 0.01 0.01 0.01 0.01 0.02 0.02 0.01 0.01 0.02 0.02 0.02 0.02 0.03 0.03 0.03 0.03 0.04 0.05 0.05 0.04 0.05 0.05 0.06 0.07 0.08 0.07 0.08 0.09 0.06 0.05 0.05 0.04
0.03 0.03 0.03 0.03 0.02 0.02 0.01 0.01 0.01 0.01 0.01 0.02 0.02 0.02 0.02 0.02 0.02 0.02 0.02 0.01 0.02 0.02 0.02 0.03 0.03 0.02 0.03 0.04 0.05 0.05 0.04 0.04 0.05 0.06 0.07 0.07 0.06 0.06 0.08 0.07 0.05 0.05 0.05
0.02 0.02 0.02 0.02 0.02 0.01 0.01 0.01 0.01 0.01 0.01 0.02 0.02 0.02 0.02 0.02 0.02 0.02 0.03 0.02 0.02 0.01 0.01 0.02 0.03 0.03 0.04 0.04 0.04 0.04 0.05 0.04 0.04 0.05 0.06 0.06 0.06 0.06 0.06 0.06 0.05 0.04 0.04
0.02 0.02 0.02 0.02 0.01 0.01 0.01 0.00 0.01 0.01 0.02 0.02 0.02 0.02 0.02 0.02 0.03 0.04 0.04 0.04 0.03 0.02 0.02 0.03 0.03 0.03 0.04 0.04 0.05 0.05 0.06 0.06 0.06 0.05 0.05 0.05 0.04 0.05 0.06 0.06 0.05 0.04 0.04
0.02 0.02 0.02 0.01 0.01 0.00 0.00 0.00 0.01 0.01 0.01 0.02 0.02 0.02 0.02 0.02 0.02 0.02 0.02 0.03 0.03 0.04 0.04 0.04 0.03 0.03 0.04 0.05 0.07 0.07 0.08 0.09 0.07 0.04 0.03 0.04 0.03 0.04 0.05 0.05 0.04 0.03 0.04
MSLP
1005.84 1006.47 1007.06 1007.60 1008.10 1008.57 1009.03 1009.49 1009.96 1010.44 1010.93 1011.40 1011.84 1012.24 1012.60 1012.91 1013.18 1013.44 1013.69 1013.95 1014.22 1014.51 1014.81 1015.13 1015.44 1015.75 1016.06 1016.35 1016.63 1016.89 1017.14 1017.36 1017.55 1017.70 1017.82 1017.89 1017.92 1017.91 1017.87 1017.80 1017.72 1017.64 1017.57
1005.34 1006.00 1006.62 1007.20 1007.72 1008.21 1008.67 1009.13 1009.61 1010.10 1010.60 1011.10 1011.58 1012.02 1012.42 1012.78 1013.10 1013.39 1013.67 1013.94 1014.22 1014.52 1014.83 1015.15 1015.47 1015.79 1016.09 1016.39 1016.68 1016.95 1017.20 1017.42 1017.62 1017.78 1017.89 1017.95 1017.97 1017.93 1017.86 1017.75 1017.63 1017.51 1017.39
1004.61 1005.32 1006.01 1006.66 1007.24 1007.78 1008.29 1008.78 1009.27 1009.78 1010.29 1010.80 1011.31 1011.78 1012.21 1012.60 1012.95 1013.28 1013.59 1013.89 1014.19 1014.51 1014.83 1015.16 1015.48 1015.80 1016.11 1016.41 1016.69 1016.96 1017.21 1017.44 1017.64 1017.80 1017.91 1017.97 1017.98 1017.94 1017.85 1017.72 1017.58 1017.43 1017.28
1003.66 1004.43 1005.21 1005.95 1006.64 1007.27 1007.86 1008.41 1008.94 1009.48 1010.01 1010.54 1011.05 1011.53 1011.98 1012.39 1012.77 1013.12 1013.46 1013.79 1014.12 1014.46 1014.80 1015.14 1015.48 1015.80 1016.11 1016.40 1016.68 1016.95 1017.20 1017.42 1017.62 1017.78 1017.90 1017.97 1017.98 1017.93 1017.84 1017.72 1017.57 1017.40 1017.24
1002.51 1003.35 1004.23 1005.10 1005.91 1006.67 1007.36 1008.01 1008.61 1009.19 1009.75 1010.30 1010.81 1011.30 1011.75 1012.16 1012.55 1012.92 1013.28 1013.64 1014.00 1014.36 1014.72 1015.08 1015.43 1015.76 1016.07 1016.36 1016.64 1016.90 1017.14 1017.37 1017.57 1017.74 1017.86 1017.94 1017.96 1017.92 1017.84 1017.73 1017.58 1017.42 1017.24
1001.30 1002.19 1003.15 1004.13 1005.08 1005.98 1006.80 1007.56 1008.26 1008.90 1009.51 1010.07 1010.60 1011.08 1011.52 1011.93 1012.32 1012.69 1013.06 1013.43 1013.82 1014.20 1014.58 1014.96 1015.32 1015.65 1015.97 1016.26 1016.54 1016.80 1017.04 1017.27 1017.48 1017.65 1017.78 1017.87 1017.90 1017.89 1017.82 1017.72 1017.59 1017.43 1017.25
1000.16 1001.07 1002.09 1003.15 1004.21 1005.22 1006.17 1007.05 1007.85 1008.58 1009.24 1009.84 1010.38 1010.86 1011.30 1011.70 1012.08 1012.44 1012.81 1013.19 1013.58 1013.98 1014.38 1014.77 1015.14 1015.48 1015.80 1016.09 1016.36 1016.62 1016.87 1017.10 1017.31 1017.50 1017.64 1017.74 1017.79 1017.79 1017.75 1017.66 1017.54 1017.39 1017.21
999.27 1000.14 1001.15 1002.25 1003.36 1004.45 1005.49 1006.47 1007.37 1008.18 1008.91 1009.56 1010.13 1010.63 1011.07 1011.46 1011.82 1012.18 1012.54 1012.92 1013.31 1013.71 1014.11 1014.51 1014.88 1015.22 1015.54 1015.84 1016.11 1016.37 1016.61 1016.85 1017.06 1017.26 1017.42 1017.53 1017.60 1017.62 1017.59 1017.52 1017.41 1017.27 1017.09
998.77 999.54 1000.48 1001.52 1002.61 1003.71 1004.79 1005.83 1006.80 1007.69 1008.50 1009.20 1009.82 1010.34 1010.79 1011.19 1011.55 1011.90 1012.25 1012.62 1013.00 1013.40 1013.80 1014.19 1014.56 1014.90 1015.21 1015.50 1015.77 1016.02 1016.27 1016.50 1016.72 1016.92 1017.09 1017.22 1017.30 1017.34 1017.33 1017.28 1017.18 1017.05 1016.88
998.76 999.36 1000.14 1001.03 1002.02 1003.05 1004.11 1005.15 1006.16 1007.10 1007.97 1008.73 1009.40 1009.97 1010.45 1010.87 1011.23 1011.58 1011.93 1012.29 1012.67 1013.06 1013.45 1013.83 1014.19 1014.52 1014.83 1015.11 1015.36 1015.61 1015.84 1016.07 1016.29 1016.50 1016.67 1016.81 1016.91 1016.97 1016.98 1016.94 1016.86 1016.74 1016.58
999.25 999.63 1000.17 1000.85 1001.64 1002.53 1003.48 1004.47 1005.46 1006.43 1007.33 1008.16 1008.88 1009.50 1010.02 1010.47 1010.86 1011.22 1011.57 1011.93 1012.30 1012.68 1013.07 1013.44 1013.79 1014.11 1014.40 1014.67 1014.92 1015.15 1015.37 1015.59 1015.80 1016.00 1016.18 1016.33 1016.44 1016.52 1016.55 1016.54 1016.49 1016.39 1016.25
1000.16 1000.30 1000.57 1000.97 1001.52 1002.19 1002.98 1003.86 1004.79 1005.73 1006.65 1007.50 1008.27 1008.94 1009.52 1010.00 1010.42 1010.81 1011.17 1011.54 1011.91 1012.29 1012.66 1013.03 1013.37 1013.69 1013.97 1014.22 1014.45 1014.67 1014.88 1015.09 1015.29 1015.48 1015.66 1015.81 1015.94 1016.04 1016.10 1016.12 1016.10 1016.04 1015.93
1001.39 1001.28 1001.27 1001.39 1001.66 1002.09 1002.67 1003.40 1004.22 1005.10 1006.00 1006.86 1007.65 1008.35 1008.96 1009.49 1009.94 1010.35 1010.73 1011.11 1011.49 1011.87 1012.25 1012.62 1012.96 1013.27 1013.55 1013.79 1014.01 1014.22 1014.41 1014.60 1014.79 1014.98 1015.15 1015.32 1015.46 1015.57 1015.66 1015.72 1015.74 1015.72 1015.66
1002.79 1002.47 1002.22 1002.08 1002.08 1002.27 1002.64 1003.19 1003.88 1004.66 1005.49 1006.32 1007.11 1007.82 1008.45 1008.99 1009.46 1009.89 1010.29 1010.68 1011.07 1011.46 1011.85 1012.22 1012.57 1012.88 1013.16 1013.40 1013.62 1013.82 1014.00 1014.18 1014.36 1014.54 1014.72 1014.88 1015.04 1015.17 1015.29 1015.38 1015.44 1015.46 1015.45
1004.23 1003.78 1003.35 1003.01 1002.81 1002.78 1002.95 1003.32 1003.86 1004.52 1005.26 1006.02 1006.76 1007.44 1008.05 1008.59 1009.07 1009.50 1009.90 1010.30 1010.69 1011.09 1011.48 1011.86 1012.22 1012.54 1012.83 1013.08 1013.30 1013.50 1013.68 1013.86 1014.04 1014.22 1014.39 1014.56 1014.72 1014.87 1015.01 1015.12 1015.22 1015.28 1015.31
1005.62 1005.13 1004.62 1004.16 1003.82 1003.64 1003.65 1003.85 1004.24 1004.77 1005.38 1006.04 1006.70 1007.32 1007.89 1008.39 1008.84 1009.26 1009.65 1010.04 1010.43 1010.82 1011.22 1011.60 1011.97 1012.30 1012.60 1012.86 1013.09 1013.30 1013.49 1013.67 1013.85 1014.03 1014.20 1014.37 1014.54 1014.69 1014.84 1014.97 1015.08 1015.17 1015.22
1006.92 1006.48 1005.98 1005.50 1005.09 1004.82 1004.72 1004.80 1005.05 1005.43 1005.92 1006.46 1007.01 1007.54 1008.02 1008.47 1008.87 1009.24 1009.60 1009.97 1010.34 1010.71 1011.10 1011.48 1011.84 1012.18 1012.49 1012.77 1013.01 1013.23 1013.43 1013.62 1013.81 1013.99 1014.16 1014.33 1014.49 1014.64 1014.78 1014.90 1015.01 1015.10 1015.16
1008.12 1007.80 1007.39 1006.96 1006.57 1006.28 1006.11 1006.10 1006.24 1006.50 1006.85 1007.26 1007.69 1008.11 1008.50 1008.87 1009.20 1009.52 1009.83 1010.15 1010.48 1010.83 1011.18 1011.54 1011.89 1012.23 1012.54 1012.82 1013.07 1013.31 1013.52 1013.72 1013.91 1014.10 1014.27 1014.43 1014.58 1014.71 1014.82 1014.92 1015.00 1015.06 1015.09
1009.25 1009.08 1008.81 1008.48 1008.16 1007.89 1007.71 1007.64 1007.69 1007.84 1008.07 1008.36 1008.67 1008.99 1009.29 1009.57 1009.83 1010.08 1010.33 1010.59 1010.87 1011.17 1011.49 1011.81 1012.13 1012.44 1012.74 1013.02 1013.27 1013.51 1013.73 1013.94 1014.13 1014.31 1014.48 1014.62 1014.75 1014.85 1014.92 1014.97 1015.00 1015.01 1015.00
1010.32 1010.32 1010.19 1009.99 1009.76 1009.54 1009.37 1009.26 1009.25 1009.32 1009.45 1009.64 1009.85 1010.07 1010.28 1010.48 1010.68 1010.87 1011.06 1011.26 1011.48 1011.72 1011.98 1012.25 1012.53 1012.81 1013.08 1013.33 1013.58 1013.81 1014.02 1014.23 1014.41 1014.58 1014.73 1014.85 1014.94 1015.00 1015.02 1015.02 1014.99 1014.93 1014.86
1011.38 1011.51 1011.51 1011.42 1011.27 1011.10 1010.94 1010.82 1010.77 1010.77 1010.83 1010.94 1011.07 1011.22 1011.36 1011.50 1011.64 1011.78 1011.91 1012.06 1012.23 1012.41 1012.61 1012.82 1013.04 1013.27 1013.50 1013.72 1013.94 1014.14 1014.34 1014.52 1014.69 1014.83 1014.95 1015.03 1015.08 1015.09 1015.06 1015.00 1014.90 1014.78 1014.64
1012.44 1012.65 1012.73 1012.71 1012.62 1012.48 1012.34 1012.21 1012.12 1012.08 1012.08 1012.13 1012.21 1012.30 1012.40 1012.50 1012.60 1012.69 1012.79 1012.89 1013.00 1013.13 1013.27 1013.42 1013.59 1013.77 1013.94 1014.12 1014.29 1014.46 1014.62 1014.76 1014.88 1014.98 1015.05 1015.09 1015.09 1015.05 1014.97 1014.85 1014.70 1014.53 1014.34
1013.51 1013.73 1013.84 1013.85 1013.78 1013.65 1013.51 1013.36 1013.24 1013.17 1013.13 1013.14 1013.17 1013.23 1013.30 1013.37 1013.43 1013.49 1013.56 1013.62 1013.69 1013.77 1013.87 1013.98 1014.09 1014.22 1014.34 1014.47 1014.59 1014.70 1014.80 1014.88 1014.95 1014.99 1015.00 1014.97 1014.92 1014.83 1014.70 1014.54 1014.35 1014.15 1013.93
1014.57 1014.76 1014.85 1014.85 1014.76 1014.62 1014.46 1014.29 1014.15 1014.04 1013.97 1013.94 1013.94 1013.96 1014.00 1014.04 1014.08 1014.11 1014.15 1014.18 1014.23 1014.28 1014.34 1014.41 1014.48 1014.56 1014.64 1014.72 1014.78 1014.83 1014.86 1014.86 1014.85 1014.81 1014.74 1014.65 1014.54 1014.39 1014.22 1014.04 1013.83 1013.62 1013.39
1015.61 1015.74 1015.77 1015.72 1015.61 1015.44 1015.25 1015.06 1014.89 1014.75 1014.64 1014.57 1014.53 1014.51 1014.51 1014.51 1014.52 1014.52 1014.53 1014.54 1014.56 1014.59 1014.64 1014.68 1014.74 1014.79 1014.83 1014.86 1014.86 1014.84 1014.79 1014.71 1014.60 1014.47 1014.32 1014.15 1013.96 1013.77 1013.57 1013.36 1013.16 1012.96 1012.76
1016.59 1016.63 1016.60 1016.51 1016.36 1016.16 1015.95 1015.74 1015.54 1015.37 1015.22 1015.10 1015.01 1014.94 1014.88 1014.83 1014.79 1014.75 1014.73 1014.72 1014.73 1014.75 1014.78 1014.83 1014.87 1014.91 1014.92 1014.91 1014.86 1014.77 1014.64 1014.46 1014.26 1014.03 1013.78 1013.53 1013.28 1013.03 1012.80 1012.59 1012.39 1012.21 1012.05
Thickness
5787 5786 5784 5782 5778 5773 5769 5766 5762 5759 5755 5753 5750 5747 5745 5745 5744 5744 5742 5741 5740 5739 5738 5738 5735 5735 5735 5733 5733 5732 5730 5730 5731 5731 5729 5731 5732 5731 5730 5730 5729 5729 5728
5782 5780 5780 5778 5775 5770 5766 5763 5760 5757 5754 5752 5750 5747 5746 5744 5743 5741 5740 5739 5738 5737 5737 5735 5734 5733 5731 5730 5729 5728 5728 5728 5728 5727 5725 5724 5726 5726 5729 5727 5726 5726 5726
5777 5776 5775 5773 5772 5767 5764 5762 5758 5755 5752 5750 5748 5745 5742 5740 5740 5738 5738 5737 5736 5735 5733 5732 5732 5730 5730 5728 5726 5726 5724 5724 5725 5726 5725 5721 5719 5721 5724 5723 5724 5722 5722
5775 5774 5772 5770 5768 5766 5763 5759 5755 5752 5749 5747 5746 5742 5739 5737 5737 5737 5736 5734 5733 5732 5731 5730 5729 5727 5728 5726 5725 5725 5724 5722 5721 5721 5721 5721 5721 5717 5716 5719 5721 5719 5718
5773 5770 5770 5767 5765 5763 5760 5757 5752 5749 5747 5745 5743 5740 5739 5738 5737 5735 5732 5730 5731 5730 5729 5728 5726 5724 5724 5723 5722 5721 5720 5721 5719 5718 5717 5717 5716 5716 5713 5711 5713 5715 5716
5769 5767 5766 5763 5760 5759 5757 5753 5749 5745 5743 5741 5739 5737 5735 5734 5733 5730 5729 5728 5729 5728 5727 5725 5724 5722 5722 5720 5719 5718 5717 5717 5715 5716 5716 5714 5713 5712 5712 5709 5708 5709 5712
5764 5761 5759 5757 5755 5753 5752 5749 5745 5741 5739 5737 5735 5734 5732 5731 5729 5728 5727 5726 5726 5725 5724 5724 5722 5721 5720 5718 5717 5716 5715 5713 5711 5711 5712 5713 5713 5712 5711 5708 5706 5705 5708
5760 5758 5756 5753 5750 5748 5747 5744 5741 5738 5736 5734 5732 5730 5729 5728 5728 5726 5727 5725 5725 5724 5723 5721 5720 5718 5717 5716 5715 5715 5713 5711 5709 5709 5708 5708 5709 5709 5708 5705 5703 5700 5703
5754 5753 5752 5750 5747 5744 5742 5740 5737 5734 5732 5731 5728 5727 5726 5725 5725 5724 5722 5722 5722 5722 5720 5719 5717 5716 5714 5713 5712 5711 5709 5708 5707 5707 5706 5705 5705 5705 5704 5704 5703 5699 5697
5748 5748 5746 5745 5743 5741 5738 5736 5733 5731 5729 5727 5725 5725 5723 5721 5721 5720 5718 5718 5718 5717 5716 5716 5715 5713 5712 5710 5709 5708 5706 5704 5704 5703 5701 5701 5702 5701 5700 5700 5700 5701 5698
5742 5740 5739 5739 5737 5735 5733 5731 5729 5727 5725 5724 5722 5720 5719 5717 5716 5716 5715 5715 5714 5713 5712 5712 5711 5710 5709 5707 5705 5705 5703 5701 5701 5700 5698 5696 5695 5696 5696 5696 5696 5697 5696
5736 5735 5733 5732 5732 5730 5728 5725 5724 5723 5722 5720 5718 5717 5715 5714 5713 5712 5712 5711 5710 5710 5709 5708 5707 5707 5706 5704 5702 5701 5700 5699 5697 5696 5695 5693 5693 5691 5691 5691 5692 5692 5692
5727 5728 5727 5726 5725 5724 5722 5721 5720 5719 5718 5717 5714 5712 5711 5710 5709 5708 5707 5707 5706 5704 5704 5703 5702 5702 5702 5700 5699 5698 5697 5696 5695 5693 5692 5690 5689 5687 5687 5686 5688 5688 5689
5719 5719 5719 5719 5718 5718 5717 5716 5715 5715 5713 5712 5710 5707 5706 5705 5704 5703 5702 5701 5700 5699 5697 5697 5697 5697 5697 5696 5695 5694 5693 5693 5691 5690 5689 5687 5685 5684 5683 5683 5682 5682 5682
5710 5711 5711 5711 5711 5710 5710 5709 5708 5708 5707 5706 5704 5702 5701 5701 5699 5698 5697 5696 5695 5694 5693 5692 5692 5692 5691 5691 5690 5689 5689 5687 5686 5685 5684 5683 5681 5679 5678 5679 5679 5677 5677
5703 5703 5703 5703 5703 5703 5703 5702 5701 5701 5701 5699 5698 5697 5696 5694 5693 5692 5691 5690 5689 5688 5687 5687 5686 5685 5685 5682 5680 5680 5682 5682 5681 5680 5679 5679 5677 5674 5672 5671 5671 5670 5670
5696 5696 5696 5695 5695 5695 5696 5695 5694 5694 5693 5693 5692 5691 5690 5688 5687 5686 5684 5683 5682 5682 5681 5680 5680 5679 5676 5673 5671 5671 5674 5675 5675 5674 5674 5675 5675 5671 5670 5667 5665 5664 5663
5689 5689 5688 5688 5688 5689 5689 5688 5687 5685 5685 5685 5684 5684 5683 5682 5681 5680 5678 5677 5676 5675 5674 5673 5673 5671 5669 5665 5664 5663 5666 5668 5668 5668 5667 5667 5667 5666 5663 5664 5663 5663 5662
5680 5680 5681 5681 5681 5681 5681 5680 5679 5678 5678 5678 5677 5678 5677 5675 5674 5673 5672 5671 5670 5668 5667 5667 5666 5665 5662 5658 5656 5654 5660 5662 5662 5662 5662 5661 5660 5657 5655 5656 5656 5657 5657
5672 5672 5674 5674 5673 5673 5673 5672 5672 5671 5670 5671 5671 5671 5670 5669 5668 5667 5665 5664 5663 5662 5661 5660 5659 5658 5656 5652 5650 5648 5654 5656 5657 5656 5656 5653 5653 5650 5647 5649 5650 5650 5650
5664 5665 5665 5665 5664 5664 5664 5664 5664 5663 5664 5664 5664 5663 5662 5661 5661 5660 5658 5657 5656 5655 5654 5653 5651 5650 5649 5646 5643 5642 5647 5650 5650 5651 5651 5650 5645 5642 5640 5641 5644 5644 5643
5655 5656 5656 5656 5656 5656 5655 5655 5655 5657 5657 5657 5656 5655 5655 5655 5655 5652 5651 5650 5649 5648 5647 5646 5644 5644 5642 5640 5637 5636 5637 5639 5642 5644 5645 5643 5638 5636 5634 5635 5635 5634 5634
5647 5648 5648 5647 5647 5647 5648 5647 5648 5649 5649 5649 5648 5648 5647 5647 5647 5646 5645 5644 5642 5642 5642 5642 5641 5639 5638 5635 5630 5629 5629 5630 5634 5637 5635 5633 5630 5628 5629 5628 5628 5628 5631
5639 5640 5640 5639 5638 5639 5640 5641 5642 5642 5642 5641 5641 5640 5641 5641 5640 5639 5640 5639 5637 5637 5636 5636 5635 5633 5631 5629 5626 5625 5625 5624 5626 5628 5627 5625 5625 5624 5624 5624 5624 5626 5628
5633 5633 5632 5632 5632 5632 5632 5634 5635 5634 5634 5633 5633 5634 5635 5635 5633 5632 5632 5631 5629 5628 5627 5628 5628 5626 5624 5620 5617 5617 5620 5620 5621 5620 5622 5624 5624 5623 5623 5622 5622 5622 5622
5625 5625 5625 5625 5626 5626 5626 5627 5627 5627 5626 5626 5627 5628 5629 5628 5627 5627 5625 5620 5620 5618 5616 5615 5616 5617 5613 5611 5610 5610 5610 5611 5611 5614 5618 5619 5619 5618 5618 5618 5617 5617 5617